Flag for Cuba Weather past 2 weeks in Santiago de Cuba, Cuba

Now
88 °F

Passing clouds.


Feels Like: 96 °F
Forecast: N/A
Wind: 8 mph from South

Location: Santiago De Cuba - Oriente

Current Time: Jul 5, 2015 at 5:50:53 PM

Latest Report: Jul 5, 2015 at 4:50 PM


Visibility: 6 mi

Pressure: 30.04 "Hg

Humidity: 62%

Dew point: 73 °F

Location of Santiago de CubaLocation

Historic Weather in Santiago de Cuba — Graph

°F

Santiago de Cuba temperature yesterday

Maximum temperature yesterday: 90 °F (at 9:50 AM)
Minimum temperature yesterday: 77 °F (at 5:50 AM)
Average temperature yesterday: 84 °F

Past Weeks' High & Low Weather Summary

 TemperatureHumidityPressure
High91 °F (Jun 28, 12:51 PM)100% (Jun 21, 10:52 PM)30.09 "Hg (Jun 21, 10:52 PM)
Low73 °F (Jun 21, 10:52 PM)43% (Jun 26, 9:50 AM)29.95 "Hg (Jul 3, 4:50 PM)
Average82 °F70%30.05 "Hg
* Reported Jun 20 3:50 PM — Jul 5 3:50 PM, Santiago de Cuba, Weather by CustomWeather, © 2015

Note: Actual official high and low records may vary slightly from our data, if they occured in-between our weather recording intervals... More about our weather records

Advertising

Santiago de Cuba weather history for previous 24 hours

 ConditionsComfort  
Time TempWeatherWind HumidityBarometerVisibility
3:50 PM
Sun, Jul 5
88 °FPassing clouds.10 mph62%30.04 "Hg6 mi
2:50 PM88 °FPassing clouds.12 mph62%30.07 "Hg6 mi
1:50 PM90 °FPassing clouds.12 mph59%30.07 "Hg6 mi
12:50 PM90 °FPassing clouds.14 mph59%30.07 "Hg6 mi
11:50 AM90 °FPassing clouds.13 mph59%30.09 "Hg6 mi
10:52 AM88 °FPassing clouds.6 mph55%30.09 "Hg6 mi
9:50 AM88 °FPassing clouds.6 mph52%30.07 "Hg6 mi
8:50 AM88 °FPassing clouds.5 mph52%30.07 "Hg6 mi
7:50 AM82 °FPassing clouds.8 mph66%30.07 "Hg6 mi
6:50 AM79 °FPassing clouds.7 mph74%30.04 "Hg6 mi
5:50 AM79 °FPassing clouds.8 mph70%30.01 "Hg6 mi
5:05 AM79 °FWarm.7 mph70%30.01 "HgN/A
4:05 AM79 °FWarm.6 mph70%30.01 "HgN/A
3:05 AM79 °FWarm.6 mph70%30.01 "HgN/A
1:50 AM81 °FPassing clouds.5 mph66%30.04 "Hg6 mi
12:50 AM81 °FPassing clouds.6 mph66%30.04 "Hg6 mi
11:50 PM
Sat, Jul 4
82 °FPassing clouds.7 mph62%30.04 "Hg6 mi
10:51 PM81 °FPassing clouds.6 mph79%30.04 "Hg6 mi
9:50 PM82 °FPassing clouds.5 mph74%30.01 "Hg6 mi
8:51 PM84 °FPassing clouds.3 mph74%30.01 "Hg6 mi
7:50 PM84 °FScattered clouds.7 mph70%30.01 "Hg6 mi
6:50 PM84 °FScattered clouds.9 mph70%29.98 "Hg6 mi
5:50 PM86 °FScattered clouds.9 mph66%29.98 "Hg6 mi
Weather by CustomWeather, © 2015

See weather overviewHow to use our weather pages